| time (UTC) | temp F | wind direction | speed knots | gust knots | rain 1hr in | rain 24hr in | rain mn in | humidity % | barometer mb |
| 20260505130104 | 64 | 252 | 1.7 | 7.8 | 0.00 | 0.00 | 0.00 | 81 | 1016.5 |
| 20260505124600 | 61 | 243 | 2.6 | 6.1 | 0.00 | 0.00 | 0.00 | 89 | 1016.2 |
| 20260505124103 | 60 | 213 | 0.9 | 4.3 | 0.00 | 0.00 | 0.00 | 92 | 1016.2 |
| 20260505123600 | 58 | 220 | 1.7 | 4.3 | 0.00 | 0.00 | 0.00 | 93 | 1016.2 |
| 20260505123107 | 57 | 209 | 0.9 | 3.5 | 0.00 | 0.00 | 0.00 | 94 | 1016.2 |
| 20260505122604 | 56 | 254 | 1.7 | 3.5 | 0.00 | 0.00 | 0.00 | 94 | 1016.3 |
| 20260505122502 | 56 | 291 | 0.0 | 3.5 | 0.00 | 0.00 | 0.00 | 93 | 1016.2 |
| 20260505122100 | 56 | 214 | 0.0 | 3.5 | 0.00 | 0.00 | 0.00 | 94 | 1016.2 |
| 20260505121600 | 55 | 33 | 0.0 | 0.9 | 0.00 | 0.00 | 0.00 | 93 | 1016.2 |
| 20260505121100 | 54 | 32 | 0.0 | 0.9 | 0.00 | 0.00 | 0.00 | 93 | 1016.2 |
| 20260505120559 | 54 | 32 | 0.0 | 1.7 | 0.00 | 0.00 | 0.00 | 93 | 1016.2 |
| 20260505120001 | 53 | 91 | 0.0 | 0.9 | 0.00 | 0.00 | 0.00 | 93 | 1016.1 |
| 20260505115604 | 53 | 92 | 0.0 | 0.9 | 0.00 | 0.00 | 0.00 | 93 | 1016.1 |
| 20260505115059 | 52 | 91 | 0.0 | 1.7 | 0.00 | 0.00 | 0.00 | 93 | 1016.1 |
| 20260505114559 | 52 | 91 | 0.0 | 1.7 | 0.00 | 0.00 | 0.00 | 92 | 1016.0 |
| 20260505114103 | 52 | 65 | 0.0 | 0.0 | 0.00 | 0.00 | 0.00 | 92 | 1016.1 |
| 20260505113600 | 51 | 65 | 0.0 | 1.7 | 0.00 | 0.00 | 0.00 | 92 | 1016.1 |
| 20260505113102 | 51 | 65 | 0.0 | 1.7 | 0.00 | 0.00 | 0.00 | 92 | 1016.0 |
| 20260505112558 | 51 | 213 | 0.0 | 0.9 | 0.00 | 0.00 | 0.00 | 92 | 1016.0 |
| 20260505112058 | 51 | 213 | 0.0 | 0.0 | 0.00 | 0.00 | 0.00 | 91 | 1015.9 |
| 20260505111559 | 51 | 213 | 0.0 | 0.0 | 0.00 | 0.00 | 0.00 | 91 | 1015.9 |
| 20260505111100 | 51 | 213 | 0.0 | 0.0 | 0.00 | 0.00 | 0.00 | 91 | 1016.0 |
| 20260505110558 | 50 | 213 | 0.0 | 0.0 | 0.00 | 0.00 | 0.00 | 91 | 1016.1 |
| 20260505110105 | 50 | 213 | 0.0 | 0.0 | 0.00 | 0.00 | 0.00 | 91 | 1016.0 |
| 20260505102102 | 51 | 213 | 0.0 | 0.0 | 0.00 | 0.00 | 0.00 | 90 | 1015.5 |
| 20260505101603 | 51 | 213 | 0.0 | 0.0 | 0.00 | 0.00 | 0.00 | 90 | 1015.4 |
| 20260505101058 | 51 | 213 | 0.0 | 0.0 | 0.00 | 0.00 | 0.00 | 90 | 1015.5 |
| 20260505100558 | 51 | 213 | 0.0 | 0.0 | 0.00 | 0.00 | 0.00 | 90 | 1015.4 |
| 20260505100058 | 51 | 213 | 0.0 | 0.0 | 0.00 | 0.00 | 0.00 | 89 | 1015.4 |
| 20260505095559 | 51 | 213 | 0.0 | 0.0 | 0.00 | 0.00 | 0.00 | 90 | 1015.4 |
| 20260505095100 | 51 | 213 | 0.0 | 0.0 | 0.00 | 0.00 | 0.00 | 89 | 1015.3 |
| 20260505094606 | 51 | 213 | 0.0 | 0.9 | 0.00 | 0.00 | 0.00 | 89 | 1015.4 |
| 20260505094058 | 51 | 213 | 0.0 | 0.9 | 0.00 | 0.00 | 0.00 | 89 | 1015.3 |
| 20260505094001 | 51 | 213 | 0.0 | 0.9 | 0.00 | 0.00 | 0.00 | 89 | 1015.3 |
| 20260505093558 | 51 | 213 | 0.0 | 0.0 | 0.00 | 0.00 | 0.00 | 89 | 1015.3 |
| 20260505093058 | 51 | 213 | 0.0 | 0.0 | 0.00 | 0.00 | 0.00 | 89 | 1015.2 |
| 20260505092558 | 51 | 213 | 0.0 | 0.0 | 0.00 | 0.00 | 0.00 | 89 | 1015.3 |
| 20260505092058 | 51 | 213 | 0.0 | 0.0 | 0.00 | 0.00 | 0.00 | 88 | 1015.2 |
| 20260505091602 | 52 | 213 | 0.0 | 0.0 | 0.00 | 0.00 | 0.00 | 88 | 1015.3 |
| 20260505091057 | 52 | 213 | 0.0 | 0.0 | 0.00 | 0.00 | 0.00 | 88 | 1015.3 |
| 20260505090557 | 52 | 213 | 0.0 | 0.0 | 0.00 | 0.00 | 0.00 | 88 | 1015.3 |
| 20260505090101 | 52 | 213 | 0.0 | 0.0 | 0.00 | 0.00 | 0.00 | 88 | 1015.2 |
| 20260505085603 | 52 | 213 | 0.0 | 0.0 | 0.00 | 0.00 | 0.00 | 88 | 1015.3 |
| 20260505085105 | 52 | 213 | 0.0 | 0.0 | 0.00 | 0.00 | 0.00 | 87 | 1015.2 |
| 20260505084558 | 52 | 213 | 0.0 | 0.0 | 0.00 | 0.00 | 0.00 | 87 | 1015.1 |
| 20260505084058 | 52 | 213 | 0.0 | 0.0 | 0.00 | 0.00 | 0.00 | 87 | 1015.2 |
| 20260505083558 | 53 | 213 | 0.0 | 0.0 | 0.00 | 0.00 | 0.00 | 87 | 1015.1 |
| 20260505083100 | 53 | 213 | 0.0 | 0.0 | 0.00 | 0.00 | 0.00 | 87 | 1015.2 |
| 20260505082558 | 53 | 213 | 0.0 | 0.0 | 0.00 | 0.00 | 0.00 | 87 | 1015.1 |
| 20260505082058 | 53 | 213 | 0.0 | 0.0 | 0.00 | 0.00 | 0.00 | 86 | 1015.1 |
| 20260505081603 | 53 | 213 | 0.0 | 0.0 | 0.00 | 0.00 | 0.00 | 86 | 1015.1 |
| 20260505081058 | 53 | 213 | 0.0 | 0.0 | 0.00 | 0.00 | 0.00 | 86 | 1014.9 |
| 20260505080558 | 53 | 213 | 0.0 | 0.0 | 0.00 | 0.00 | 0.00 | 86 | 1014.9 |
| 20260505080058 | 54 | 213 | 0.0 | 0.0 | 0.00 | 0.00 | 0.00 | 86 | 1014.9 |
| 20260505075600 | 54 | 213 | 0.0 | 0.0 | 0.00 | 0.00 | 0.00 | 85 | 1014.8 |
| 20260505075059 | 54 | 213 | 0.0 | 0.0 | 0.00 | 0.00 | 0.00 | 85 | 1014.8 |
| 20260505074611 | 54 | 213 | 0.0 | 0.0 | 0.00 | 0.00 | 0.00 | 85 | 1014.8 |
| 20260505074058 | 54 | 213 | 0.0 | 0.9 | 0.00 | 0.00 | 0.00 | 84 | 1014.7 |
| 20260505073558 | 54 | 213 | 0.0 | 0.9 | 0.00 | 0.00 | 0.00 | 84 | 1014.8 |
| 20260505073109 | 55 | 213 | 0.0 | 0.0 | 0.00 | 0.00 | 0.00 | 84 | 1014.8 |
| 20260505072559 | 55 | 213 | 0.0 | 0.0 | 0.00 | 0.00 | 0.00 | 83 | 1014.9 |
| 20260505072057 | 55 | 213 | 0.0 | 0.0 | 0.00 | 0.00 | 0.00 | 83 | 1014.8 |
| 20260505071558 | 55 | 213 | 0.0 | 0.0 | 0.00 | 0.00 | 0.00 | 82 | 1014.8 |
| 20260505071058 | 55 | 213 | 0.0 | 0.0 | 0.00 | 0.00 | 0.00 | 82 | 1014.8 |
| 20260505070558 | 55 | 213 | 0.0 | 0.0 | 0.00 | 0.00 | 0.00 | 81 | 1014.8 |
| 20260505070058 | 56 | 213 | 0.0 | 0.0 | 0.00 | 0.00 | 0.00 | 81 | 1014.8 |
| 20260505065557 | 56 | 213 | 0.0 | 0.0 | 0.00 | 0.00 | 0.00 | 81 | 1014.8 |
| 20260505065057 | 56 | 213 | 0.0 | 0.0 | 0.00 | 0.00 | 0.00 | 80 | 1014.9 |
| 20260505064604 | 57 | 213 | 0.0 | 0.0 | 0.00 | 0.00 | 0.00 | 80 | 1014.8 |
| 20260505064057 | 57 | 213 | 0.0 | 0.0 | 0.00 | 0.00 | 0.00 | 79 | 1014.9 |
| 20260505063600 | 57 | 213 | 0.0 | 0.0 | 0.00 | 0.00 | 0.00 | 79 | 1014.9 |
| 20260505063100 | 58 | 213 | 0.0 | 0.0 | 0.00 | 0.00 | 0.00 | 78 | 1014.9 |
| 20260505062558 | 58 | 213 | 0.0 | 0.9 | 0.00 | 0.00 | 0.00 | 77 | 1015.0 |
| 20260505062057 | 59 | 213 | 0.0 | 1.7 | 0.00 | 0.00 | 0.00 | 75 | 1015.1 |
| 20260505061625 | 59 | 213 | 0.0 | 1.7 | 0.00 | 0.00 | 0.00 | 74 | 1015.1 |
| 20260505061057 | 60 | 213 | 0.0 | 0.9 | 0.00 | 0.00 | 0.00 | 73 | 1015.1 |
| 20260505060600 | 60 | 213 | 0.0 | 1.7 | 0.00 | 0.00 | 0.00 | 72 | 1015.1 |
| 20260505060506 | 60 | 213 | 0.0 | 1.7 | 0.00 | 0.00 | 0.00 | 72 | 1015.1 |
| 20260505060058 | 61 | 213 | 0.0 | 2.6 | 0.00 | 0.00 | 0.00 | 70 | 1015.1 |
| 20260505055557 | 61 | 256 | 0.0 | 2.6 | 0.00 | 0.00 | 0.00 | 70 | 1015.1 |
| 20260505055057 | 61 | 198 | 0.9 | 2.6 | 0.00 | 0.00 | 0.00 | 68 | 1015.2 |
| 20260505054621 | 61 | 199 | 0.0 | 3.5 | 0.00 | 0.00 | 0.00 | 68 | 1015.2 |
| 20260505054058 | 61 | 232 | 1.7 | 3.5 | 0.00 | 0.00 | 0.00 | 68 | 1015.2 |
| 20260505053557 | 62 | 182 | 0.0 | 3.5 | 0.00 | 0.00 | 0.00 | 67 | 1015.2 |
| 20260505053057 | 62 | 242 | 0.0 | 3.5 | 0.00 | 0.00 | 0.00 | 67 | 1015.2 |
| 20260505052557 | 62 | 194 | 1.7 | 4.3 | 0.00 | 0.00 | 0.00 | 67 | 1015.2 |
| 20260505052058 | 62 | 180 | 0.9 | 4.3 | 0.00 | 0.00 | 0.00 | 67 | 1015.1 |
| 20260505051559 | 62 | 197 | 1.7 | 4.3 | 0.00 | 0.00 | 0.00 | 67 | 1015.2 |
| 20260505051057 | 62 | 198 | 1.7 | 5.2 | 0.00 | 0.00 | 0.00 | 67 | 1015.3 |
| 20260505050557 | 62 | 213 | 1.7 | 5.2 | 0.00 | 0.00 | 0.00 | 66 | 1015.3 |
| 20260505041601 | 60 | 206 | 0.9 | 2.6 | 0.00 | 0.00 | 0.00 | 72 | 1015.5 |
| 20260505041059 | 60 | 206 | 0.0 | 2.6 | 0.00 | 0.00 | 0.00 | 72 | 1015.4 |
| 20260505040600 | 60 | 206 | 0.0 | 3.5 | 0.00 | 0.00 | 0.00 | 72 | 1015.5 |
| 20260505040101 | 60 | 251 | 0.0 | 0.9 | 0.00 | 0.00 | 0.00 | 73 | 1015.5 |
| 20260505040004 | 60 | 251 | 0.0 | 0.9 | 0.00 | 0.00 | 0.00 | 73 | 1015.5 |
| 20260505035559 | 60 | 251 | 0.0 | 3.5 | 0.00 | 0.00 | 0.00 | 73 | 1015.5 |
| 20260505035100 | 60 | 251 | 0.0 | 3.5 | 0.00 | 0.00 | 0.00 | 73 | 1015.5 |
| 20260505034559 | 60 | 203 | 0.0 | 0.9 | 0.00 | 0.00 | 0.00 | 74 | 1015.6 |
| 20260505034059 | 60 | 203 | 0.0 | 0.9 | 0.00 | 0.00 | 0.00 | 73 | 1015.6 |
| 20260505033600 | 61 | 203 | 0.0 | 1.7 | 0.00 | 0.00 | 0.00 | 72 | 1015.7 |
| 20260505033100 | 61 | 203 | 0.0 | 1.7 | 0.00 | 0.00 | 0.00 | 72 | 1015.7 |
| 20260505032600 | 61 | 203 | 0.0 | 1.7 | 0.00 | 0.00 | 0.00 | 71 | 1015.6 |
| 20260505032059 | 61 | 203 | 0.0 | 1.7 | 0.00 | 0.00 | 0.00 | 71 | 1015.6 |
| 20260505031615 | 62 | 203 | 0.0 | 1.7 | 0.00 | 0.00 | 0.00 | 70 | 1015.6 |
| 20260505031059 | 62 | 203 | 0.0 | 1.7 | 0.00 | 0.00 | 0.00 | 70 | 1015.6 |
| 20260505030559 | 62 | 203 | 0.0 | 1.7 | 0.00 | 0.00 | 0.00 | 69 | 1015.5 |
| 20260505030002 | 63 | 181 | 0.0 | 1.7 | 0.00 | 0.00 | 0.00 | 68 | 1015.6 |
| 20260505025601 | 63 | 181 | 0.0 | 2.6 | 0.00 | 0.00 | 0.00 | 67 | 1015.6 |
| 20260505025059 | 63 | 181 | 0.9 | 2.6 | 0.00 | 0.00 | 0.00 | 67 | 1015.6 |
| 20260505024610 | 63 | 246 | 0.0 | 0.9 | 0.00 | 0.00 | 0.00 | 66 | 1015.6 |
| 20260505024510 | 63 | 246 | 0.0 | 0.9 | 0.00 | 0.00 | 0.00 | 66 | 1015.6 |
| 20260505024059 | 64 | 246 | 0.0 | 0.9 | 0.00 | 0.00 | 0.00 | 66 | 1015.5 |
| 20260505023559 | 64 | 246 | 0.0 | 0.9 | 0.00 | 0.00 | 0.00 | 65 | 1015.5 |
| 20260505023059 | 64 | 246 | 0.0 | 1.7 | 0.00 | 0.00 | 0.00 | 63 | 1015.5 |
| 20260505022559 | 65 | 246 | 0.0 | 0.9 | 0.00 | 0.00 | 0.00 | 63 | 1015.5 |
| 20260505022100 | 65 | 246 | 0.0 | 0.9 | 0.00 | 0.00 | 0.00 | 62 | 1015.4 |
| 20260505021613 | 66 | 246 | 0.0 | 2.6 | 0.00 | 0.00 | 0.00 | 61 | 1015.4 |
| 20260505021004 | 66 | 246 | 0.0 | 3.5 | 0.00 | 0.00 | 0.00 | 60 | 1015.4 |
| 20260505020559 | 67 | 246 | 0.0 | 3.5 | 0.00 | 0.00 | 0.00 | 59 | 1015.3 |
| 20260505020002 | 67 | 186 | 0.0 | 1.7 | 0.00 | 0.00 | 0.00 | 59 | 1015.2 |
| 20260505015559 | 67 | 186 | 0.0 | 1.7 | 0.00 | 0.00 | 0.00 | 57 | 1015.2 |
| 20260505015100 | 68 | 186 | 0.0 | 6.1 | 0.00 | 0.00 | 0.00 | 56 | 1015.1 |
| 20260505014600 | 67 | 186 | 2.6 | 8.7 | 0.00 | 0.00 | 0.00 | 56 | 1015.0 |
| 20260505014059 | 67 | 161 | 2.6 | 8.7 | 0.00 | 0.00 | 0.00 | 56 | 1014.9 |
| 20260505013602 | 67 | 168 | 3.5 | 7.0 | 0.00 | 0.00 | 0.00 | 56 | 1014.8 |
| 20260505013101 | 67 | 200 | 1.7 | 8.7 | 0.00 | 0.00 | 0.00 | 56 | 1014.7 |
| 20260505012559 | 66 | 159 | 0.9 | 6.1 | 0.00 | 0.00 | 0.00 | 57 | 1014.7 |
| 20260505012102 | 65 | 176 | 1.7 | 7.0 | 0.00 | 0.00 | 0.00 | 56 | 1014.7 |
| 20260505012002 | 65 | 174 | 2.6 | 7.0 | 0.00 | 0.00 | 0.00 | 56 | 1014.7 |
| 20260505011600 | 65 | 248 | 1.7 | 4.3 | 0.00 | 0.00 | 0.00 | 56 | 1014.6 |
| 20260505011100 | 65 | 184 | 0.0 | 1.7 | 0.00 | 0.00 | 0.00 | 57 | 1014.5 |
| 20260505010559 | 65 | 184 | 0.0 | 1.7 | 0.00 | 0.00 | 0.00 | 58 | 1014.5 |
| 20260505010100 | 66 | 184 | 0.0 | 0.0 | 0.00 | 0.00 | 0.00 | 57 | 1014.3 |
| 20260505010002 | 66 | 184 | 0.0 | 0.0 | 0.00 | 0.00 | 0.00 | 57 | 1014.3 |
| 20260505005559 | 66 | 184 | 0.0 | 0.0 | 0.00 | 0.00 | 0.00 | 56 | 1014.2 |
| 20260505005059 | 67 | 184 | 0.0 | 0.0 | 0.00 | 0.00 | 0.00 | 56 | 1014.2 |
| 20260505004605 | 67 | 184 | 0.0 | 0.0 | 0.00 | 0.00 | 0.00 | 55 | 1014.1 |
| 20260505004059 | 68 | 184 | 0.0 | 0.0 | 0.00 | 0.00 | 0.00 | 53 | 1014.0 |
| 20260505003559 | 68 | 184 | 0.0 | 0.0 | 0.00 | 0.00 | 0.00 | 52 | 1013.9 |
| 20260505003059 | 69 | 184 | 0.0 | 0.0 | 0.00 | 0.00 | 0.00 | 52 | 1013.9 |
| 20260505002600 | 69 | 184 | 0.0 | 0.0 | 0.00 | 0.00 | 0.00 | 51 | 1013.8 |
| 20260505002059 | 70 | 184 | 0.0 | 0.0 | 0.00 | 0.00 | 0.00 | 51 | 1013.7 |
| 20260505001559 | 71 | 184 | 0.0 | 0.0 | 0.00 | 0.00 | 0.00 | 49 | 1013.6 |
| 20260505001059 | 71 | 184 | 0.0 | 0.0 | 0.00 | 0.00 | 0.00 | 48 | 1013.6 |
| 20260505001002 | 72 | 184 | 0.0 | 0.0 | 0.00 | 0.00 | 0.00 | 48 | 1013.6 |
| 20260505000559 | 72 | 184 | 0.0 | 0.0 | 0.00 | 0.00 | 0.00 | 46 | 1013.6 |
| 20260505000059 | 73 | 184 | 0.0 | 0.0 | 0.00 | 0.00 | 0.00 | 44 | 1013.5 |
| 20260505000007 | 73 | 184 | 0.0 | 0.0 | 0.00 | 0.00 | 0.00 | 44 | 1013.5 |
| 20260504235559 | 74 | 184 | 0.0 | 0.9 | 0.00 | 0.00 | 0.00 | 43 | 1013.5 |
| 20260504235100 | 75 | 184 | 0.0 | 0.9 | 0.00 | 0.00 | 0.00 | 41 | 1013.4 |
| 20260504234600 | 75 | 184 | 0.0 | 1.7 | 0.00 | 0.00 | 0.00 | 35 | 1013.4 |
| 20260504234100 | 76 | 184 | 0.0 | 1.7 | 0.00 | 0.00 | 0.00 | 34 | 1013.3 |
| 20260504233559 | 76 | 184 | 0.0 | 2.6 | 0.00 | 0.00 | 0.00 | 34 | 1013.4 |
| 20260504233102 | 77 | 184 | 0.9 | 4.3 | 0.00 | 0.00 | 0.00 | 32 | 1013.4 |
| 20260504232559 | 77 | 180 | 0.9 | 6.1 | 0.00 | 0.00 | 0.00 | 31 | 1013.4 |
| 20260504232100 | 78 | 190 | 2.6 | 6.1 | 0.00 | 0.00 | 0.00 | 31 | 1013.4 |
| 20260504231559 | 78 | 196 | 2.6 | 6.1 | 0.00 | 0.00 | 0.00 | 31 | 1013.4 |
| 20260504231059 | 79 | 188 | 0.9 | 5.2 | 0.00 | 0.00 | 0.00 | 31 | 1013.5 |
| 20260504230600 | 79 | 183 | 1.7 | 7.0 | 0.00 | 0.00 | 0.00 | 30 | 1013.5 |
| 20260504230101 | 79 | 199 | 2.6 | 7.8 | 0.00 | 0.00 | 0.00 | 29 | 1013.5 |
| 20260504230002 | 79 | 185 | 3.5 | 7.8 | 0.00 | 0.00 | 0.00 | 29 | 1013.5 |
| 20260504225559 | 79 | 192 | 3.5 | 8.7 | 0.00 | 0.00 | 0.00 | 29 | 1013.5 |
| 20260504225059 | 79 | 190 | 2.6 | 8.7 | 0.00 | 0.00 | 0.00 | 29 | 1013.5 |
| 20260504224559 | 79 | 192 | 3.5 | 8.7 | 0.00 | 0.00 | 0.00 | 28 | 1013.5 |
| 20260504224059 | 80 | 190 | 1.7 | 8.7 | 0.00 | 0.00 | 0.00 | 28 | 1013.5 |
| 20260504223559 | 80 | 148 | 4.3 | 8.7 | 0.00 | 0.00 | 0.00 | 27 | 1013.5 |
| 20260504223103 | 81 | 196 | 1.7 | 6.1 | 0.00 | 0.00 | 0.00 | 29 | 1013.4 |
| 20260504222600 | 81 | 195 | 3.5 | 9.6 | 0.00 | 0.00 | 0.00 | 28 | 1013.4 |
| 20260504222059 | 81 | 217 | 5.2 | 9.6 | 0.00 | 0.00 | 0.00 | 27 | 1013.4 |
| 20260504221608 | 81 | 211 | 4.3 | 9.6 | 0.00 | 0.00 | 0.00 | 27 | 1013.4 |
| 20260504221059 | 81 | 180 | 4.3 | 10.4 | 0.00 | 0.00 | 0.00 | 28 | 1013.4 |
| 20260504220600 | 81 | 196 | 0.9 | 7.8 | 0.00 | 0.00 | 0.00 | 29 | 1013.3 |
| 20260504220135 | 81 | 167 | 3.5 | 7.8 | 0.00 | 0.00 | 0.00 | 28 | 1013.4 |
| 20260504220001 | 81 | 201 | 3.5 | 6.1 | 0.00 | 0.00 | 0.00 | 28 | 1013.4 |
| 20260504215559 | 81 | 177 | 1.7 | 7.0 | 0.00 | 0.00 | 0.00 | 27 | 1013.4 |
| 20260504215101 | 82 | 142 | 1.7 | 9.6 | 0.00 | 0.00 | 0.00 | 26 | 1013.3 |
| 20260504214559 | 82 | 190 | 4.3 | 9.6 | 0.00 | 0.00 | 0.00 | 25 | 1013.3 |
| 20260504214059 | 82 | 246 | 4.3 | 10.4 | 0.00 | 0.00 | 0.00 | 24 | 1013.3 |
| 20260504213601 | 82 | 232 | 3.5 | 10.4 | 0.00 | 0.00 | 0.00 | 25 | 1013.2 |
| 20260504213123 | 83 | 234 | 4.3 | 8.7 | 0.00 | 0.00 | 0.00 | 25 | 1013.3 |
| 20260504212602 | 83 | 232 | 2.6 | 7.8 | 0.00 | 0.00 | 0.00 | 25 | 1013.3 |
| 20260504212100 | 83 | 198 | 3.5 | 9.6 | 0.00 | 0.00 | 0.00 | 24 | 1013.3 |
| 20260504211559 | 83 | 200 | 2.6 | 9.6 | 0.00 | 0.00 | 0.00 | 25 | 1013.2 |
| 20260504211059 | 83 | 94 | 1.7 | 6.1 | 0.00 | 0.00 | 0.00 | 26 | 1013.3 |
| 20260504210559 | 83 | 167 | 2.6 | 7.8 | 0.00 | 0.00 | 0.00 | 26 | 1013.3 |
| 20260504210002 | 83 | 159 | 2.6 | 7.8 | 0.00 | 0.00 | 0.00 | 27 | 1013.2 |
| 20260504205558 | 83 | 138 | 1.7 | 6.1 | 0.00 | 0.00 | 0.00 | 26 | 1013.2 |
| 20260504205059 | 83 | 192 | 0.9 | 7.8 | 0.00 | 0.00 | 0.00 | 24 | 1013.3 |
| 20260504204618 | 83 | 217 | 3.5 | 7.8 | 0.00 | 0.00 | 0.00 | 25 | 1013.4 |
| 20260504204059 | 84 | 309 | 1.7 | 9.6 | 0.00 | 0.00 | 0.00 | 24 | 1013.3 |
| 20260504203603 | 84 | 213 | 3.5 | 11.3 | 0.00 | 0.00 | 0.00 | 23 | 1013.4 |
| 20260504203059 | 84 | 221 | 4.3 | 11.3 | 0.00 | 0.00 | 0.00 | 23 | 1013.4 |
| 20260504202559 | 85 | 254 | 1.7 | 7.8 | 0.00 | 0.00 | 0.00 | 24 | 1013.4 |
| 20260504202100 | 84 | 189 | 1.7 | 4.3 | 0.00 | 0.00 | 0.00 | 25 | 1013.4 |
| 20260504201609 | 84 | 232 | 2.6 | 7.8 | 0.00 | 0.00 | 0.00 | 24 | 1013.5 |
| 20260504201059 | 84 | 232 | 3.5 | 7.8 | 0.00 | 0.00 | 0.00 | 23 | 1013.5 |
| 20260504200603 | 84 | 184 | 2.6 | 7.8 | 0.00 | 0.00 | 0.00 | 24 | 1013.6 |
| 20260504200110 | 84 | 96 | 1.7 | 7.8 | 0.00 | 0.00 | 0.00 | 22 | 1013.6 |
| 20260504195558 | 84 | 213 | 1.7 | 9.6 | 0.00 | 0.00 | 0.00 | 23 | 1013.7 |
| 20260504195058 | 84 | 288 | 5.2 | 9.6 | 0.00 | 0.00 | 0.00 | 22 | 1013.8 |
| 20260504194559 | 84 | 267 | 2.6 | 7.8 | 0.00 | 0.00 | 0.00 | 22 | 1013.9 |
| 20260504194101 | 85 | 261 | 1.7 | 7.8 | 0.00 | 0.00 | 0.00 | 22 | 1013.9 |
| 20260504193600 | 85 | 205 | 2.6 | 7.8 | 0.00 | 0.00 | 0.00 | 24 | 1014.0 |
| 20260504193101 | 84 | 177 | 0.9 | 8.7 | 0.00 | 0.00 | 0.00 | 26 | 1014.1 |
| 20260504192559 | 84 | 240 | 3.5 | 8.7 | 0.00 | 0.00 | 0.00 | 25 | 1014.2 |
| 20260504192101 | 84 | 246 | 1.7 | 7.0 | 0.00 | 0.00 | 0.00 | 24 | 1014.3 |
| 20260504191559 | 84 | 196 | 4.3 | 7.0 | 0.00 | 0.00 | 0.00 | 23 | 1014.4 |
| 20260504191059 | 84 | 202 | 2.6 | 10.4 | 0.00 | 0.00 | 0.00 | 24 | 1014.5 |
| 20260504190559 | 84 | 338 | 1.7 | 6.1 | 0.00 | 0.00 | 0.00 | 23 | 1014.5 |
| 20260504190100 | 84 | 180 | 2.6 | 8.7 | 0.00 | 0.00 | 0.00 | 23 | 1014.6 |
| 20260504190006 | 84 | 159 | 3.5 | 8.7 | 0.00 | 0.00 | 0.00 | 24 | 1014.6 |
| 20260504185559 | 84 | 223 | 4.3 | 8.7 | 0.00 | 0.00 | 0.00 | 23 | 1014.7 |
| 20260504185100 | 84 | 239 | 1.7 | 4.3 | 0.00 | 0.00 | 0.00 | 24 | 1014.7 |
| 20260504184602 | 83 | 300 | 1.7 | 5.2 | 0.00 | 0.00 | 0.00 | 27 | 1014.9 |
| 20260504184059 | 83 | 348 | 2.6 | 7.0 | 0.00 | 0.00 | 0.00 | 26 | 1015.0 |
| 20260504183559 | 82 | 229 | 2.6 | 7.0 | 0.00 | 0.00 | 0.00 | 25 | 1015.1 |
| 20260504183105 | 82 | 250 | 2.6 | 8.7 | 0.00 | 0.00 | 0.00 | 26 | 1015.0 |
| 20260504182559 | 83 | 218 | 3.5 | 8.7 | 0.00 | 0.00 | 0.00 | 25 | 1015.2 |
| 20260504182059 | 83 | 205 | 2.6 | 7.8 | 0.00 | 0.00 | 0.00 | 26 | 1015.1 |
| 20260504181607 | 83 | 279 | 2.6 | 7.8 | 0.00 | 0.00 | 0.00 | 27 | 1015.2 |
| 20260504181059 | 83 | 181 | 3.5 | 7.8 | 0.00 | 0.00 | 0.00 | 26 | 1015.3 |
| 20260504180600 | 82 | 165 | 0.9 | 7.0 | 0.00 | 0.00 | 0.00 | 27 | 1015.4 |
| 20260504180059 | 82 | 297 | 2.6 | 7.8 | 0.00 | 0.00 | 0.00 | 28 | 1015.3 |
| 20260504175558 | 82 | 263 | 1.7 | 7.8 | 0.00 | 0.00 | 0.00 | 27 | 1015.4 |
| 20260504175058 | 83 | 206 | 2.6 | 7.8 | 0.00 | 0.00 | 0.00 | 28 | 1015.4 |
| 20260504174559 | 82 | 205 | 0.9 | 4.3 | 0.00 | 0.00 | 0.00 | 28 | 1015.4 |
| 20260504174100 | 82 | 192 | 1.7 | 7.0 | 0.00 | 0.00 | 0.00 | 28 | 1015.5 |
| 20260504173558 | 82 | 182 | 1.7 | 6.1 | 0.00 | 0.00 | 0.00 | 28 | 1015.5 |
| 20260504173101 | 82 | 202 | 1.7 | 7.8 | 0.00 | 0.00 | 0.00 | 29 | 1015.5 |
| 20260504172559 | 82 | 162 | 2.6 | 7.8 | 0.00 | 0.00 | 0.00 | 29 | 1015.6 |
| 20260504172059 | 81 | 110 | 1.7 | 7.0 | 0.00 | 0.00 | 0.00 | 30 | 1015.7 |
| 20260504171606 | 81 | 22 | 0.0 | 8.7 | 0.00 | 0.00 | 0.00 | 30 | 1015.7 |
| 20260504171059 | 81 | 246 | 3.5 | 8.7 | 0.00 | 0.00 | 0.00 | 29 | 1015.8 |
| 20260504170600 | 80 | 294 | 0.9 | 6.1 | 0.00 | 0.00 | 0.00 | 31 | 1015.8 |
| 20260504160105 | 77 | 296 | 2.6 | 7.8 | 0.00 | 0.00 | 0.00 | 32 | 1016.6 |
| 20260504151057 | 75 | 247 | 4.3 | 11.3 | 0.00 | 0.00 | 0.00 | 36 | 1017.0 |
| 20260504150558 | 74 | 315 | 1.7 | 8.7 | 0.00 | 0.00 | 0.00 | 38 | 1017.0 |
| 20260504141100 | 70 | 189 | 2.6 | 4.3 | 0.00 | 0.00 | 0.00 | 50 | 1017.1 |
| 20260504140600 | 70 | 195 | 1.7 | 4.3 | 0.00 | 0.00 | 0.00 | 50 | 1017.1 |